Regional Weather Roundup
Issued by NWS Jackson, KY

Home | Current Version | Previous Version | Text Only | Print | Product List | Glossary Off
Versions: 1 2 3 4 5 6 7 8 9 10 11 12 13 14 15 16 17 18 19 20 21 22 23 24 25 26 27 28 29 30 31 32 33 34 35 36 37 38 39 40 41 42 43 44 45 46 47 48 49 50

000
ASUS43 KJKL 241905
RWRJKL

EAST KENTUCKY HOURLY WEATHER ROUNDUP
NATIONAL WEATHER SERVICE JACKSON KY
300 PM EDT THU JUL 24 2014

NOTE: "FAIR" INDICATES FEW OR NO CLOUDS BELOW 12,000 FEET WITH
NO SIGNIFICANT WEATHER AND/OR OBSTRUCTIONS TO VISIBILITY.

* THESE REPORTS ARE NOT UNDER NWS QUALITY CONTROL AND MAY NOT
  REPORT WEATHER SUCH AS PRECIPITATION AND FOG.

KYZ079-080-083-085-087-088-110-112-115-119-120-242000
...EASTERN KENTUCKY...

CITY           SKY/WX    TMP DP  RH WIND       PRES   REMARKS
JACKSON        CLOUDY    66  63  90 CALM      30.03R
LONDON         CLOUDY    71  64  78 N12       30.02S
SOMERSET*      CLOUDY    72  63  73 N8        30.03S
MONTICELLO*    PTSUNNY   74  67  78 CALM      30.03F
WILLIAMSBURG*    N/A     72  68  88 N6        30.02R
MIDDLESBORO*   CLOUDY    80  67  66 NW9       29.98S
HARLAN APT*    CLOUDY    73  66  78 MISG      29.99S
BLACK MTN*       N/A     68  63  83 N3          N/A
PIKEVILLE APT* FOG       63  63 100 N6        30.02R VSB 0
BIG SANDY*     CLOUDY    65  64  97 N5        30.02S
MOREHEAD APT*  MOCLDY    72  59  64 VRB6G14   30.05S
$$

KYZ035-036-041-042-044-050-067-078-099-242000
...CENTRAL KENTUCKY...

CITY           SKY/WX    TMP DP  RH WIND       PRES   REMARKS
MT STERLING*   CLOUDY    70  61  73 NE7       30.05S
FLEMING/MASON* CLOUDY    73  59  60 NE10G16   30.05S
DANVILLE*      PTSUNNY   72  61  68 N6        30.05S
RICHMOND*      CLOUDY    70  59  68 N3        30.04R
LEXINGTON      PTSUNNY   76  59  55 NE12      30.04F
FRANKFORT      PTSUNNY   74  54  49 N9G17     30.04F
$$

KYZ091>093-OHZ055-061-077-WVZ005-015-034-035-042-242000
...SOUTHERN OHIO/WEST VIRGINIA...

CITY           SKY/WX    TMP DP  RH WIND       PRES   REMARKS
COVINGTON      PTSUNNY   75  51  43 NE13G21   30.06S
COLUMBUS       MOSUNNY   76  52  43 N10       30.03S
DAYTON         PTSUNNY   74  53  48 N10       30.08F
WILMINGTON     PTSUNNY   73  54  51 NE12G20   30.05F
HUNTINGTON     CLOUDY    69  63  81 N8        30.01F
CHARLESTON     LGT RAIN  66  65  96 N5        30.00S
PINEVILLE*     PTSUNNY   77  71  82 MISG      30.02R
BECKLEY        PTSUNNY   71  64  78 N13       30.00S
BLUEFIELD      PTSUNNY   73  64  73 W7        30.01R
$$

VAZ002-007-008-TNZ017-027-036-066-071-242000
...SOUTHWEST VIRGINIA/EAST TENNESSEE...

CITY           SKY/WX    TMP DP  RH WIND       PRES   REMARKS
WISE*          CLOUDY    72  70  94 S6        30.03S
JONESVILLE*    CLOUDY    75  72  88 CALM      29.99S
ABINGDON*      PTSUNNY   82  67  59 W7        29.97S
BRISTOL        MOSUNNY   84  65  52 W13G18    29.94F
KNOXVILLE      MOSUNNY   84  69  60 W9G18     29.94F
OAK RIDGE      MOSUNNY   85  68  56 VRB7      29.96F
CROSSVILLE     MOSUNNY   80  65  59 W10       30.02F
NASHVILLE      CLOUDY    79  66  64 N3        30.02F
$$

...KEY TO REMARKS...
VSB - VISIBILITY IN MILES
WCI - WIND CHILL INDEX
HX  - HEAT INDEX

$$


USA.gov is the U.S. government's official web portal to all federal, state and local government web resources and services.